Location: Parc des �les de St-Timoth�e
(45.2924°N, 74.0481°W)
Time: 13:11:17
(UTC-05:00)

ISS - All Passes

Search period start: 20 January 2017 00:00
Search period end: 30 January 2017 00:00
Orbit: 399 x 410 km, 51.6° (Epoch: 21 January)

Date Brightness Start Highest point End Pass type
(mag) Time Alt. Az. Time Alt. Az. Time Alt. Az.
20 Jan - 00:13:23 10° W 00:16:27 37° NNW 00:19:31 10° NE night (unlit)
20 Jan - 01:50:43 10° NW 01:53:30 25° N 01:56:17 10° ENE night (unlit)
20 Jan - 03:27:16 10° NW 03:30:28 51° NNE 03:33:38 10° E night (unlit)
20 Jan - 05:03:59 10° W 05:06:48 27° SW 05:09:37 10° SSE visible
20 Jan - 21:45:00 10° SSW 21:47:48 27° SE 21:50:37 10° E night (unlit)
20 Jan - 23:20:57 10° W 23:24:08 52° NNW 23:27:20 10° NE night (unlit)
21 Jan - 00:58:17 10° WNW 01:01:05 26° N 01:03:53 10° NE night (unlit)
21 Jan - 02:35:05 10° NW 02:38:08 36° NNE 02:41:11 10° E night (unlit)
21 Jan - 04:11:33 10° WNW 04:14:42 49° SW 04:17:51 10° SE visible
21 Jan - 20:53:43 10° S 20:55:46 16° SE 20:57:48 10° E night (unlit)
21 Jan - 22:28:36 10° WSW 22:31:51 81° NNW 22:35:08 10° ENE night (unlit)
22 Jan - 00:05:48 10° WNW 00:08:40 28° N 00:11:33 10° NE night (unlit)
22 Jan - 01:42:50 10° NW 01:45:46 29° N 01:48:40 10° ENE night (unlit)
22 Jan - 03:19:15 10° WNW 03:22:31 86° SSW 03:25:46 10° ESE night (unlit)
22 Jan - 04:56:59 10° WSW 04:58:32 13° SW 05:00:06 10° SSW visible
22 Jan - 21:36:26 10° SW 21:39:38 59° SE 21:42:51 10° ENE night (unlit)
22 Jan - 23:13:15 10° W 23:16:16 34° NNW 23:19:17 10° NE night (unlit)
23 Jan - 00:50:31 10° NW 00:53:20 26° N 00:56:09 10° ENE night (unlit)
23 Jan - 02:27:01 10° WNW 02:30:15 59° NNE 02:33:28 10° ESE night (unlit)
23 Jan - 04:03:53 10° W 04:06:31 23° SW 04:09:07 10° SSE night (unlit)
23 Jan - 20:44:31 10° SSW 20:47:29 33° SE 20:50:27 10° ENE night (unlit)
23 Jan - 22:20:44 10° W 22:23:54 45° NNW 22:27:03 10° NE night (unlit)
23 Jan - 23:58:06 10° WNW 00:00:54 25° N 00:03:40 10° ENE night (unlit)
24 Jan - 01:34:48 10° NW 01:37:55 40° NNE 01:41:01 10° E night (unlit)
24 Jan - 03:11:19 10° WNW 03:14:24 39° SW 03:17:27 10° SSE night (unlit)
24 Jan - 19:52:59 10° S 19:55:22 19° SE 19:57:47 10° E night (unlit)
24 Jan - 21:28:18 10° WSW 21:31:34 69° NNW 21:34:49 10° ENE night (unlit)
24 Jan - 23:05:35 10° WNW 23:08:26 27° N 23:11:17 10° NE night (unlit)
25 Jan - 00:42:32 10° NW 00:45:30 31° NNE 00:48:28 10° ENE night (unlit)
25 Jan - 02:18:57 10° WNW 02:22:12 71° SSW 02:25:25 10° SE night (unlit)
25 Jan - 03:57:33 10° WSW 03:58:07 10° SW 03:58:41 10° SW night (unlit)
25 Jan - 19:02:31 10° SE 19:03:20 11° SE 19:04:09 10° ESE visible
25 Jan - 20:36:02 10° SW 20:39:17 72° SSE 20:42:32 10° ENE night (unlit)
25 Jan - 22:13:00 10° WNW 22:15:58 31° NNW 22:18:56 10° NE night (unlit)
25 Jan - 23:50:12 10° NW 23:53:03 27° N 23:55:54 10° ENE night (unlit)
26 Jan - 01:26:40 10° WNW 01:29:55 70° NNE 01:33:09 10° ESE night (unlit)
26 Jan - 03:03:44 10° W 03:06:05 19° SW 03:08:26 10° S night (unlit)
26 Jan - 19:43:58 10° SW 19:47:03 40° SE 19:50:09 10° ENE visible
26 Jan - 21:20:26 10° W 21:23:32 40° NNW 21:26:39 10° NE night (unlit)
26 Jan - 22:57:46 10° WNW 23:00:34 25° N 23:03:21 10° ENE night (unlit)
27 Jan - 00:34:24 10° NW 00:37:33 46° NNE 00:40:42 10° E night (unlit)
27 Jan - 02:11:00 10° WNW 02:13:58 32° SW 02:16:54 10° SSE night (unlit)
27 Jan - 18:52:14 10° SSW 18:54:53 23° SE 18:57:33 10° E visible
27 Jan - 20:27:56 10° WSW 20:31:09 58° NNW 20:34:23 10° ENE visible
27 Jan - 22:05:14 10° WNW 22:08:04 26° N 22:10:53 10° NE night (unlit)
27 Jan - 23:42:06 10° NW 23:45:08 34° NNE 23:48:08 10° E night (unlit)
28 Jan - 01:18:32 10° WNW 01:21:45 58° SW 01:24:56 10° SE night (unlit)
28 Jan - 18:01:08 10° SSE 18:02:47 13° SE 18:04:26 10° ESE visible
28 Jan - 19:35:32 10° WSW 19:38:48 87° SSE 19:42:05 10° ENE visible
28 Jan - 21:12:38 10° WNW 21:15:34 29° N 21:18:29 10° NE night (unlit)
28 Jan - 22:49:45 10° NW 22:52:39 28° N 22:55:32 10° ENE night (unlit)
29 Jan - 00:26:11 10° WNW 00:29:27 82° NNE 00:32:42 10° ESE night (unlit)
29 Jan - 02:03:32 10° W 02:05:32 15° SW 02:07:31 10° S night (unlit)
29 Jan - 18:43:21 10° SW 18:46:31 50° SE 18:49:42 10° ENE visible
29 Jan - 20:20:01 10° W 20:23:05 36° NNW 20:26:09 10° NE visible
29 Jan - 21:57:19 10° NW 22:00:08 26° N 22:02:56 10° ENE night (unlit)
29 Jan - 23:33:52 10° NW 23:37:04 52° NNE 23:40:15 10° ESE night (unlit)
